Weather History for West Yellowstone, MT

Change the Weather History Date:

Saturday, November 24, 2012

  Actual Average Record
Temperature  
Mean Temperature 28 °F -  
Max Temperature 33 °F 28 °F 41 °F (2011)
Min Temperature 23 °F 10 °F -13 °F (2010)
Degree Days  
Heating Degree Days 37    
Moisture  
Dew Point -    
Average Humidity    
Maximum Humidity    
Minimum Humidity    
Precipitation  
Precipitation 0.00 in - - ()
Sea Level Pressure  
Sea Level Pressure 30.12 in    
Wind  
Wind Speed 9 mph (SSW)    
Max Wind Speed 17 mph    
Max Gust Speed 24 mph    
Visibility 9 miles    
Events Snow    
Averages and records for this station are not official NWS values.
T = Trace of Precipitation, MM = Missing Value Source: NWS Daily Summary

Daily Weather History Graph

Daily Weather History Graph

Search for Another Location

Airport:

Trip Planner

Search our weather history database for the weather conditions in past years. The results will help you decide how hot, cold, wet, or windy it might be!

Date:

Astronomy

Nov. 24, 2012 Rise Set
Actual Time 7:33 AM MST 4:48 PM MST
Civil Twilight 7:01 AM MST 5:21 PM MST
Nautical Twilight 6:25 AM MST 5:57 PM MST
Astronomical Twilight 5:50 AM MST 6:31 PM MST
Moon 2:41 PM MST (11/24) 3:47 AM MST (11/24)
Length of Visible Light 10h 19m
Length of Day
9h 14m
Waxing Gibbous, 87% of the Moon is Illuminated
Nov 24
Waxing Gibbous
Nov 28
Full
Dec 6
Last Quarter
Dec 13
New
Dec 19
First Quarter

Hourly Weather History & Observations

Time (MST) Temp. Windchill Dew Point Humidity Pressure Visibility Wind Dir Wind Speed Gust Speed Precip Events Conditions
12:10 AM 23.0 °F 18.4 °F - N/A% 30.25 in 10.0 mi NNW 3.5 mph - N/A   Mostly Cloudy
12:30 AM 28.4 °F 21.2 °F - N/A% 30.24 in 10.0 mi WSW 6.9 mph - N/A   Overcast
12:50 AM 30.2 °F 22.6 °F - N/A% 30.24 in 10.0 mi SW 8.1 mph - N/A   Overcast
1:30 AM 32.0 °F 26.4 °F - N/A% 30.21 in 10.0 mi SSW 5.8 mph - N/A   Overcast
1:50 AM 32.0 °F 24.8 °F - N/A% 30.21 in 10.0 mi SSW 8.1 mph - N/A   Overcast
2:10 AM 32.0 °F 24.2 °F - N/A% 30.21 in 10.0 mi SW 9.2 mph - N/A   Overcast
2:30 AM 32.0 °F 22.5 °F - N/A% 30.20 in 10.0 mi SSW 12.7 mph - N/A   Overcast
2:50 AM 32.0 °F 22.5 °F - N/A% 30.19 in 10.0 mi SSW 12.7 mph - N/A   Overcast
3:10 AM 32.0 °F 22.5 °F - N/A% 30.19 in 10.0 mi South 12.7 mph - N/A   Overcast
3:30 AM 32.0 °F 22.5 °F - N/A% 30.18 in 10.0 mi South 12.7 mph - N/A   Overcast
3:50 AM 32.0 °F 22.1 °F - N/A% 30.18 in 10.0 mi South 13.8 mph 24.2 mph N/A   Overcast
4:10 AM 33.8 °F 27.0 °F - N/A% 30.18 in 10.0 mi South 8.1 mph 23.0 mph N/A   Overcast
4:30 AM 32.0 °F 25.6 °F - N/A% 30.18 in 10.0 mi South 6.9 mph - N/A   Overcast
4:50 AM 32.0 °F 24.8 °F - N/A% 30.18 in 10.0 mi South 8.1 mph 16.1 mph N/A   Overcast
5:10 AM 32.0 °F 23.6 °F - N/A% 30.17 in 10.0 mi SSW 10.4 mph 24.2 mph N/A   Overcast
5:30 AM 32.0 °F 22.1 °F - N/A% 30.16 in 10.0 mi South 13.8 mph 18.4 mph N/A   Overcast
5:50 AM 32.0 °F 23.0 °F - N/A% 30.16 in 10.0 mi SSE 11.5 mph 17.3 mph N/A   Overcast
6:10 AM 32.0 °F 23.0 °F - N/A% 30.16 in 10.0 mi South 11.5 mph 18.4 mph N/A   Overcast
6:30 AM 32.0 °F 23.0 °F - N/A% 30.16 in 10.0 mi South 11.5 mph 17.3 mph N/A   Overcast
6:50 AM 32.0 °F 23.6 °F - N/A% 30.17 in 10.0 mi SSW 10.4 mph - N/A   Overcast
7:10 AM 32.0 °F 24.8 °F - N/A% 30.17 in 10.0 mi South 8.1 mph - N/A   Overcast
7:30 AM 32.0 °F 23.6 °F - N/A% 30.17 in 10.0 mi South 10.4 mph 16.1 mph N/A   Overcast
7:50 AM 32.0 °F 23.6 °F - N/A% 30.16 in 10.0 mi South 10.4 mph - N/A   Overcast
8:10 AM 32.0 °F 23.6 °F - N/A% 30.16 in 10.0 mi South 10.4 mph 17.3 mph N/A   Overcast
8:30 AM 32.0 °F 23.6 °F - N/A% 30.16 in 10.0 mi South 10.4 mph 18.4 mph N/A   Overcast
8:50 AM 32.0 °F 23.6 °F - N/A% 30.16 in 10.0 mi SSW 10.4 mph 17.3 mph N/A   Overcast
9:10 AM 32.0 °F 23.6 °F - N/A% 30.15 in 10.0 mi South 10.4 mph - N/A   Overcast
9:30 AM 32.0 °F 23.6 °F - N/A% 30.15 in 10.0 mi South 10.4 mph - N/A   Overcast
9:50 AM 32.0 °F 24.8 °F - N/A% 30.16 in 10.0 mi South 8.1 mph 16.1 mph N/A   Overcast
10:10 AM 32.0 °F 23.6 °F - N/A% 30.16 in 10.0 mi South 10.4 mph - N/A   Mostly Cloudy
10:30 AM 32.0 °F 23.0 °F - N/A% 30.16 in 10.0 mi South 11.5 mph 17.3 mph N/A   Partly Cloudy
10:50 AM 32.0 °F 23.6 °F - N/A% 30.15 in 10.0 mi SSW 10.4 mph 17.3 mph N/A   Mostly Cloudy
11:10 AM 32.0 °F 24.8 °F - N/A% 30.15 in 10.0 mi SSW 8.1 mph - N/A   Mostly Cloudy
11:30 AM 32.0 °F 26.4 °F - N/A% 30.14 in 10.0 mi SSW 5.8 mph 17.3 mph N/A   Mostly Cloudy
11:50 AM 33.8 °F 25.3 °F - N/A% 30.14 in 10.0 mi SSW 11.5 mph 18.4 mph N/A   Scattered Clouds
12:10 PM 32.0 °F 23.6 °F - N/A% 30.13 in 10.0 mi South 10.4 mph 16.1 mph N/A   Mostly Cloudy
12:30 PM 32.0 °F 23.0 °F - N/A% 30.13 in 10.0 mi South 11.5 mph 17.3 mph N/A   Overcast
12:50 PM 33.8 °F 25.8 °F - N/A% 30.12 in 10.0 mi SSW 10.4 mph 20.7 mph N/A   Overcast
1:10 PM 33.8 °F 27.7 °F - N/A% 30.12 in 10.0 mi SSW 6.9 mph 17.3 mph N/A   Overcast
1:30 PM 33.8 °F 24.8 °F - N/A% 30.11 in 10.0 mi SSW 12.7 mph 17.3 mph N/A   Overcast
1:50 PM 33.8 °F 25.8 °F - N/A% 30.11 in 10.0 mi SW 10.4 mph - N/A   Overcast
2:10 PM 33.8 °F 23.2 °F - N/A% 30.10 in 10.0 mi SW 17.3 mph 23.0 mph N/A   Overcast
2:30 PM 33.8 °F 25.3 °F - N/A% 30.09 in 10.0 mi SW 11.5 mph 23.0 mph N/A   Mostly Cloudy
2:50 PM 33.8 °F 25.3 °F - N/A% 30.09 in 10.0 mi SSW 11.5 mph - N/A   Mostly Cloudy
3:10 PM 33.8 °F 26.4 °F - N/A% 30.08 in 10.0 mi SW 9.2 mph 19.6 mph N/A   Mostly Cloudy
3:30 PM 33.8 °F 23.5 °F - N/A% 30.08 in 10.0 mi SSW 16.1 mph 24.2 mph N/A   Mostly Cloudy
3:50 PM 32.0 °F 23.0 °F - N/A% 30.08 in 5.0 mi SW 11.5 mph 23.0 mph N/A   Mostly Cloudy
4:10 PM 32.0 °F 23.6 °F - N/A% 30.09 in 10.0 mi SSW 10.4 mph 18.4 mph N/A   Overcast
4:30 PM 32.0 °F 25.6 °F - N/A% 30.09 in 10.0 mi SSW 6.9 mph - N/A   Overcast
4:50 PM 32.0 °F 28.7 °F - N/A% 30.08 in 10.0 mi SW 3.5 mph - N/A   Overcast
5:10 PM 32.0 °F 27.5 °F - N/A% 30.08 in 10.0 mi SW 4.6 mph - N/A   Overcast
5:30 PM 32.0 °F - - N/A% 30.08 in 10.0 mi Calm Calm - N/A   Overcast
5:50 PM 32.0 °F 24.2 °F - N/A% 30.08 in 10.0 mi SW 9.2 mph - N/A   Overcast
6:10 PM 32.0 °F 25.6 °F - N/A% 30.07 in 10.0 mi SSW 6.9 mph - N/A   Overcast
6:30 PM 32.0 °F 24.2 °F - N/A% 30.06 in 10.0 mi SSW 9.2 mph - N/A   Overcast
6:50 PM 32.0 °F 24.2 °F - N/A% 30.06 in 10.0 mi South 9.2 mph - N/A   Overcast
7:10 PM 32.0 °F 24.8 °F - N/A% 30.06 in 10.0 mi SSW 8.1 mph - N/A   Overcast
7:30 PM 32.0 °F 22.1 °F - N/A% 30.05 in 7.0 mi SSW 13.8 mph - N/A   Overcast
7:50 PM 32.0 °F 27.5 °F - N/A% 30.05 in 10.0 mi West 4.6 mph - N/A   Mostly Cloudy
8:10 PM 32.0 °F 23.6 °F - N/A% 30.04 in 10.0 mi SW 10.4 mph - N/A   Overcast
8:30 PM 32.0 °F 24.2 °F - N/A% 30.03 in 10.0 mi SW 9.2 mph - N/A   Mostly Cloudy
8:50 PM 32.0 °F 24.8 °F - N/A% 30.04 in 10.0 mi SW 8.1 mph - N/A   Overcast
9:10 PM 32.0 °F 24.2 °F - N/A% 30.03 in 10.0 mi SW 9.2 mph - N/A   Overcast
9:30 PM 32.0 °F 24.2 °F - N/A% 30.03 in 5.0 mi SW 9.2 mph - N/A   Overcast
9:50 PM 32.0 °F 24.2 °F - N/A% 30.02 in 5.0 mi SSW 9.2 mph - N/A   Overcast
10:10 PM 32.0 °F 23.6 °F - N/A% 30.02 in 7.0 mi SSW 10.4 mph - N/A   Mostly Cloudy
10:30 PM 32.0 °F 23.0 °F - N/A% 30.01 in 7.0 mi SW 11.5 mph 17.3 mph N/A   Overcast
10:50 PM 32.0 °F 23.6 °F - N/A% 30.01 in 4.0 mi SSW 10.4 mph - N/A   Mostly Cloudy
11:10 PM 32.0 °F 24.8 °F - N/A% 30.01 in 5.0 mi SW 8.1 mph - N/A   Mostly Cloudy
11:30 PM 32.0 °F 23.6 °F - N/A% 30.00 in 4.0 mi SW 10.4 mph - N/A   Scattered Clouds
11:50 PM 32.0 °F 23.6 °F - N/A% 30.00 in 1.5 mi SSW 10.4 mph - N/A Snow Light Snow